Regional Weather Roundup
Issued by NWS Jackson, KY

Home | Current Version | Previous Version | Graphics & Text | Print | Product List | Glossary On
Versions: 1 2 3 4 5 6 7 8 9 10 11 12 13 14 15 16 17 18 19 20 21 22 23 24 25 26 27 28 29 30 31 32 33 34 35 36 37 38 39 40 41 42 43 44 45 46 47 48 49 50
000
ASUS43 KJKL 031610
RWRJKL

EAST KENTUCKY HOURLY WEATHER ROUNDUP
NATIONAL WEATHER SERVICE JACKSON KY
1200 PM EDT THU SEP 03 2015

NOTE: "FAIR" INDICATES FEW OR NO CLOUDS BELOW 12,000 FEET WITH
NO SIGNIFICANT WEATHER AND/OR OBSTRUCTIONS TO VISIBILITY.

* THESE REPORTS ARE NOT UNDER NWS QUALITY CONTROL AND MAY NOT
  REPORT WEATHER SUCH AS PRECIPITATION AND FOG.

KYZ079-080-083-085-087-088-110-112-115-119-120-031700
...EASTERN KENTUCKY...

CITY           SKY/WX    TMP DP  RH WIND       PRES   REMARKS
JACKSON        MOSUNNY   82  68  62 CALM      30.08F
LONDON         SUNNY     86  65  49 N8        30.08S
SOMERSET*      SUNNY     82  66  57 CALM      30.08S
MONTICELLO*    SUNNY     87  69  54 CALM      30.09F HX  91
WILLIAMSBURG*  SUNNY     82  68  61 NE6       30.08
MIDDLESBORO*   SUNNY     82  70  66 E5        30.08F
HARLAN APT*      N/A     82  66  57 MISG      30.10S
HAZARD APT*    SUNNY     82  68  61 CALM      30.08
BLACK MTN*       N/A     72  66  83 N3          N/A
PIKEVILLE APT* PTSUNNY   77  68  73 CALM      30.09S
BIG SANDY*     MOSUNNY   81  70  69 CALM      30.08S
MOREHEAD APT*  SUNNY     84  70  61 VRB3      30.08S
$$

KYZ035-036-041-042-044-050-067-078-099-031700
...CENTRAL KENTUCKY...

CITY           SKY/WX    TMP DP  RH WIND       PRES   REMARKS
MT STERLING*   SUNNY     84  70  61 CALM      30.08S
FLEMING/MASON* SUNNY     84  70  61 NW5       30.06F
DANVILLE*      SUNNY     86  64  48 CALM      30.07F
RICHMOND*      SUNNY     84  66  54 CALM      30.07S
LEXINGTON      MOSUNNY   88  68  51 NW7       30.06F HX  91
FRANKFORT      MOSUNNY   86  66  51 VRB3      30.04F
$$

KYZ091>093-OHZ055-061-077-WVZ005-015-034-035-042-031700
...SOUTHERN OHIO/WEST VIRGINIA...

CITY           SKY/WX    TMP DP  RH WIND       PRES   REMARKS
COVINGTON      MOSUNNY   86  68  54 W6        30.04F
COLUMBUS       MOSUNNY   84  70  62 VRB5      30.01F
DAYTON         MOSUNNY   86  69  56 VRB7      30.04F HX  90
WILMINGTON     SUNNY     85  69  58 VRB6      30.04F
HUNTINGTON     MOSUNNY   84  69  60 VRB5      30.04S
CHARLESTON     PTSUNNY   78  68  71 VRB3      30.06S
PINEVILLE*     MOSUNNY   80  70  71 MISG      30.15S
BECKLEY        PTSUNNY   74  64  71 NE5       30.13S
BLUEFIELD      PTSUNNY   78  65  63 NW8       30.15S
$$

VAZ002-007-008-TNZ017-027-036-066-071-031700
...SOUTHWEST VIRGINIA/EAST TENNESSEE...

CITY           SKY/WX    TMP DP  RH WIND       PRES   REMARKS
WISE*          MOSUNNY   79  63  57 N8        30.17S
JONESVILLE*    SUNNY     82  66  57 CALM      30.10F
ABINGDON*      PTSUNNY   80  64  57 NE3       30.11F
BRISTOL        PTSUNNY   83  66  56 CALM      30.09S
KNOXVILLE      MOSUNNY   85  66  53 NE8       30.04F
OAK RIDGE      SUNNY     85  66  53 VRB3      30.06S
CROSSVILLE     MOSUNNY   84  65  52 VRB5      30.11S
NASHVILLE      MOSUNNY   89  67  47 E5        30.04F HX  92
$$

...KEY TO REMARKS...
VSB - VISIBILITY IN MILES
WCI - WIND CHILL INDEX
HX  - HEAT INDEX

$$



USA.gov is the U.S. government's official web portal to all federal, state and local government web resources and services.